星链-5752 (STARLINK-5752 )

导读

STARLINK-5752是美国SpaceX公司星链星座的一员,于2023年2月12日发射升空,属于第二代低轨互联网通信卫星。该卫星运行在近地轨道,主要为全球提供高速卫星互联网接入服务,支持偏远地区网络覆盖、手机直连通信等应用。作为星链大规模组网的组成部分,它依托激光星间链路技术,助力构建全球覆盖的低轨卫星通信网络,推动卫星互联网商业化应用发展。

基本信息
目录编号:
55577
目录名称:
STARLINK-5752
国际标识:
2023-020J
轨道中心:
EARTH
卫星名称:
星链-5752
卫星全名:
星链-5752 (STARLINK-5752 )
卫星状态:
在轨 (已飞行1300 天)
发射日期:
2023-02-12 UTC
国别 :
美国 (US)
星等 :
--
轨道信息
数据来源 国际轨道数据
星历时间: 2026-09-04T05:22:50+0800
9小时前
查看轨道信息
半长轴: 6861.199km
偏心率: 0.0001254
轨道倾角: 43.002°
近地点辐角 262.593°
升交点赤经 78.969°
平近点角 97.478°
近地点: 482.201km
远地点: 483.923km
周期: 94.267分钟
每日圈数: 15.27576
详细信息
固有亮度:
5
最大亮度:
2.5
卫星平台:
Starlink v1.5
覆盖范围:
全球
运营商:
太空探索技术公司
运营商所在国:
美国
制造商(研发单位):
太空探索技术公司
制造商所在国:
美国
使用方式:
暂无
卫星简介
星链(Starlink)计划是由太空探索技术公司(SpaceX)提出的一个巨型低轨卫星互联网星座项目,计划在2019年至2024年间在太空搭建由约1.2万颗卫星组成的“星链”网络,其中1584颗将部署在地球上空550千米处的近地轨道,并从2020年开始工作。该卫星仍在工作。
2D轨道图
3D轨道图
轨道高度分析图
轨道倾角分析图
轨道综合分析图
查看轨道综合分析图
交会数据列表
事件ID 空间交会对象 最接近时刻(TCA) 交会距离 交会风险概率(CRP) 交会风险指数(CRI) 操作
CDM_260904-145405-557706-256721
2026-09-04T
14:54:39+0000
0.244 km
中距离
4.689932E-4 高风险 0.88
CDM_260904-233205-557706-256721
2026-09-04T
23:32:30+0000
0.931 km
远距离
1.873848E-5 中风险 0.6
CDM_260904-132005-557706-256721
2026-09-04T
13:20:30+0000
2.637 km
极远距离
9.687255E-7 极低风险 0.35
CDM_260904-162805-557706-256721
2026-09-04T
16:28:48+0000
2.942 km
极远距离
8.384322E-7 极低风险 0.33